Humidity-temperature Sensor

Selected Measurement Type: Air Temperature

 
Air Temperature [°C]     6 entries per hour
Showing data from 9/14/2018 (00:00:00 Z) to 9/7/2018 (00:01:00 Z)
Previous Next [ Day | 3-Days | 7-Days ]
First Last
Prev [ Day | 3-Days | 7-Days ] Next
First Last

Start Time:     :
End Time:     :     
Time (in GMT) :00 :50 :40 :30 :20 :10
Previous Next [ Day | 3-Days | 7-Days ]
First Last
Prev [ Day | 3-Days | 7-Days ] Next
First Last


123 => good data
MM => data is determined as missing
-- => data not received/configured
Back to Top Back to Top
9/14/2018 00:00 to 23:10 25.21 25.43 25.28 25.32 24.92 25.12
9/13/2018 23:00 to 22:10 24.63 24.36 24.86 24.84 24.80 24.93
9/13/2018 22:00 to 21:10 24.92 24.83 24.53 24.99 25.02 25.20
9/13/2018 21:00 to 20:10 25.17 25.12 25.15 25.30 25.02 24.05
9/13/2018 20:00 to 19:10 25.22 25.43 25.02 25.26 25.11 24.91
9/13/2018 19:00 to 18:10 24.07 25.09 25.04 25.06 24.78 24.82
9/13/2018 18:00 to 17:10 25.12 24.82 25.40 25.73 25.52 25.45
9/13/2018 17:00 to 16:10 25.39 24.86 24.52 25.47 25.48 25.57
9/13/2018 16:00 to 15:10 25.52 25.50 25.47 25.28 25.05 25.14
9/13/2018 15:00 to 14:10 24.88 24.97 24.94 24.82 24.86 24.75
9/13/2018 14:00 to 13:10 24.70 24.38 24.49 24.39 24.30 24.36
9/13/2018 13:00 to 12:10 24.30 24.34 24.15 24.27 24.03 24.31
9/13/2018 12:00 to 11:10 24.12 24.18 23.60 23.83 23.64 23.59
9/13/2018 11:00 to 10:10 23.84 23.89 23.72 23.77 23.73 23.96
9/13/2018 10:00 to 9:10 24.49 24.65 24.82 24.53 23.46 24.25
9/13/2018 09:00 to 8:10 -- -- -- -- -- --
9/13/2018 08:00 to 7:10 25.13 25.31 24.88 24.69 24.20 24.50
9/13/2018 07:00 to 6:10 24.27 24.32 24.81 24.93 24.90 24.83
9/13/2018 06:00 to 5:10 24.88 24.68 24.92 24.85 24.89 24.78
9/13/2018 05:00 to 4:10 24.65 24.45 24.22 24.06 23.73 23.51
9/13/2018 04:00 to 3:10 23.66 24.69 24.82 24.79 24.80 25.01
9/13/2018 03:00 to 2:10 24.92 24.90 24.90 24.86 24.82 24.89
9/13/2018 02:00 to 1:10 24.75 24.96 24.92 24.97 25.06 24.94
9/13/2018 01:00 to 0:10 24.92 24.16 24.76 24.87 24.89 24.85
9/13/2018 00:00 to 23:10 24.88 24.25 24.62 24.65 24.31 24.70
9/12/2018 23:00 to 22:10 24.52 24.81 24.85 24.59 24.75 24.71
9/12/2018 22:00 to 21:10 24.72 24.79 24.80 24.79 24.78 24.86
9/12/2018 21:00 to 20:10 24.80 24.69 24.88 24.61 24.23 24.32
9/12/2018 20:00 to 19:10 24.75 24.66 24.67 24.76 24.56 24.82
9/12/2018 19:00 to 18:10 24.85 24.69 24.80 24.67 24.85 24.77
9/12/2018 18:00 to 17:10 24.53 24.01 24.52 24.03 24.97 24.73
9/12/2018 17:00 to 16:10 24.85 24.86 24.82 24.66 24.77 24.78
9/12/2018 16:00 to 15:10 24.37 24.25 24.40 24.39 24.56 24.40
9/12/2018 15:00 to 14:10 23.92 24.35 24.43 24.08 23.74 24.28
9/12/2018 14:00 to 13:10 24.02 24.22 24.15 23.92 23.51 24.18
9/12/2018 13:00 to 12:10 24.04 24.14 24.06 24.22 24.07 24.31
9/12/2018 12:00 to 11:10 24.27 24.11 24.06 23.93 24.22 24.32
9/12/2018 11:00 to 10:10 24.20 24.37 24.29 24.18 24.25 24.28
9/12/2018 10:00 to 9:10 24.35 24.22 24.38 24.30 24.43 24.31
9/12/2018 09:00 to 8:10 24.29 24.38 24.43 24.31 24.34 24.38
9/12/2018 08:00 to 7:10 24.45 24.41 24.41 24.45 24.48 24.40
9/12/2018 07:00 to 6:10 24.37 24.53 24.45 24.49 24.44 24.44
9/12/2018 06:00 to 5:10 24.42 24.45 24.40 24.34 24.39 24.44
9/12/2018 05:00 to 4:10 24.40 24.55 24.44 24.44 24.49 24.52
9/12/2018 04:00 to 3:10 24.53 24.51 24.45 24.52 24.34 24.37
9/12/2018 03:00 to 2:10 24.50 24.43 24.51 24.50 24.49 24.48
9/12/2018 02:00 to 1:10 24.56 24.37 24.43 24.56 24.66 24.64
9/12/2018 01:00 to 0:10 24.66 24.54 24.14 24.52 24.53 24.61
9/12/2018 00:00 to 23:10 24.53 24.59 24.61 24.54 24.48 24.42
9/11/2018 23:00 to 22:10 24.48 24.37 24.41 24.54 24.55 24.52
9/11/2018 22:00 to 21:10 24.08 24.50 24.56 24.43 24.43 24.34
9/11/2018 21:00 to 20:10 24.46 24.30 24.16 24.42 24.56 24.57
9/11/2018 20:00 to 19:10 24.40 24.42 24.37 24.52 24.55 24.51
9/11/2018 19:00 to 18:10 24.53 24.55 24.36 24.56 24.60 24.49
9/11/2018 18:00 to 17:10 24.42 24.59 24.57 24.61 24.66 24.77
9/11/2018 17:00 to 16:10 24.64 24.64 24.84 24.65 24.70 24.56
9/11/2018 16:00 to 15:10 24.63 24.66 24.79 24.55 24.55 24.57
9/11/2018 15:00 to 14:10 24.57 24.53 24.28 23.89 23.89 24.15
9/11/2018 14:00 to 13:10 24.25 24.18 24.24 24.09 24.18 24.20
9/11/2018 13:00 to 12:10 24.35 24.17 24.15 24.11 23.61 24.21
9/11/2018 12:00 to 11:10 24.07 24.02 24.07 23.90 24.14 24.15
9/11/2018 11:00 to 10:10 24.13 24.17 24.37 24.33 24.33 24.25
9/11/2018 10:00 to 9:10 24.29 24.27 24.30 24.22 24.19 24.44
9/11/2018 09:00 to 8:10 24.37 24.48 24.29 24.16 24.29 24.32
9/11/2018 08:00 to 7:10 24.34 24.35 24.33 24.28 24.28 24.38
9/11/2018 07:00 to 6:10 24.24 24.17 24.24 24.28 24.40 24.27
9/11/2018 06:00 to 5:10 24.17 24.59 24.46 24.15 24.48 24.65
9/11/2018 05:00 to 4:10 24.49 24.31 24.51 24.24 24.50 24.50
9/11/2018 04:00 to 3:10 24.44 24.06 24.32 24.45 24.40 24.40
9/11/2018 03:00 to 2:10 24.28 24.34 24.61 24.53 24.26 24.07
9/11/2018 02:00 to 1:10 24.34 24.41 24.43 24.25 24.54 24.62
9/11/2018 01:00 to 0:10 24.53 24.64 24.55 24.23 24.52 24.56
9/11/2018 00:00 to 23:10 24.72 24.21 24.16 24.77 24.54 24.63
9/10/2018 23:00 to 22:10 24.36 24.27 24.46 24.32 23.76 24.51
9/10/2018 22:00 to 21:10 24.58 24.57 24.73 24.61 24.54 24.13
9/10/2018 21:00 to 20:10 24.23 24.90 24.91 24.81 24.75 24.83
9/10/2018 20:00 to 19:10 24.95 24.88 24.86 24.72 24.87 24.91
9/10/2018 19:00 to 18:10 24.92 24.59 24.89 24.88 25.09 24.82
9/10/2018 18:00 to 17:10 25.01 24.77 24.74 24.61 24.87 24.10
9/10/2018 17:00 to 16:10 23.78 23.14 23.28 24.29 24.24 23.08
9/10/2018 16:00 to 15:10 24.54 24.57 24.50 24.64 24.53 24.05
9/10/2018 15:00 to 14:10 24.29 24.18 23.99 23.91 24.12 24.14
9/10/2018 14:00 to 13:10 24.26 24.09 23.90 23.68 24.28 24.19
9/10/2018 13:00 to 12:10 24.32 24.20 24.37 24.39 24.40 24.45
9/10/2018 12:00 to 11:10 24.49 24.44 23.76 24.41 24.30 24.34
9/10/2018 11:00 to 10:10 24.49 24.41 24.43 24.37 24.35 24.13
9/10/2018 10:00 to 9:10 24.10 23.26 24.19 23.74 24.27 24.18
9/10/2018 09:00 to 8:10 24.16 24.18 23.98 23.73 23.49 23.16
9/10/2018 08:00 to 7:10 24.37 24.52 24.36 24.23 24.52 24.53
9/10/2018 07:00 to 6:10 24.42 24.54 24.54 24.63 24.53 24.52
9/10/2018 06:00 to 5:10 24.42 24.60 24.48 24.48 24.23 23.92
9/10/2018 05:00 to 4:10 24.61 24.21 24.78 24.82 24.83 24.70
9/10/2018 04:00 to 3:10 24.78 24.64 24.66 24.73 24.74 24.76
9/10/2018 03:00 to 2:10 24.57 24.57 24.42 23.91 24.21 24.85
9/10/2018 02:00 to 1:10 24.66 24.70 24.80 24.69 24.62 24.54
9/10/2018 01:00 to 0:10 24.26 24.73 24.79 24.42 23.96 23.73
9/10/2018 00:00 to 23:10 24.81 24.67 24.64 24.70 24.63 24.78
9/9/2018 23:00 to 22:10 24.68 24.45 24.64 24.59 24.56 24.04
9/9/2018 22:00 to 21:10 24.54 24.50 24.65 24.41 24.35 24.14
9/9/2018 21:00 to 20:10 24.05 24.03 23.91 23.97 23.90 23.82
9/9/2018 20:00 to 19:10 23.92 23.70 23.78 23.80 23.64 23.63
9/9/2018 19:00 to 18:10 23.31 23.42 23.30 23.17 23.01 22.89
9/9/2018 18:00 to 17:10 22.48 22.58 22.48 22.88 23.15 24.01
9/9/2018 17:00 to 16:10 24.27 24.41 24.40 24.50 24.40 24.42
9/9/2018 16:00 to 15:10 24.43 24.29 24.41 24.29 24.30 24.38
9/9/2018 15:00 to 14:10 24.37 24.29 24.31 24.36 24.39 24.34
9/9/2018 14:00 to 13:10 24.41 24.19 24.23 24.22 24.22 24.15
9/9/2018 13:00 to 12:10 24.16 24.25 24.16 24.18 24.17 24.13
9/9/2018 12:00 to 11:10 24.18 24.21 24.15 24.12 24.16 24.21
9/9/2018 11:00 to 10:10 24.19 24.23 24.27 24.26 24.26 24.19
9/9/2018 10:00 to 9:10 24.18 24.18 24.20 24.15 23.97 24.11
9/9/2018 09:00 to 8:10 24.01 24.11 24.02 24.09 24.05 24.05
9/9/2018 08:00 to 7:10 24.05 24.05 24.07 24.12 24.12 24.13
9/9/2018 07:00 to 6:10 24.17 24.18 24.18 24.10 24.16 24.07
9/9/2018 06:00 to 5:10 23.99 24.16 24.19 24.12 24.12 24.23
9/9/2018 05:00 to 4:10 24.15 24.15 24.10 24.25 24.28 24.27
9/9/2018 04:00 to 3:10 24.18 24.10 24.19 24.13 24.12 24.08
9/9/2018 03:00 to 2:10 24.16 24.17 24.13 24.14 24.24 24.28
9/9/2018 02:00 to 1:10 24.39 24.46 24.41 24.40 24.45 24.45
9/9/2018 01:00 to 0:10 24.58 24.46 24.51 24.35 24.43 24.48
9/9/2018 00:00 to 23:10 24.52 24.48 24.65 24.40 24.52 24.41
9/8/2018 23:00 to 22:10 24.48 24.35 24.33 24.32 24.36 24.39
9/8/2018 22:00 to 21:10 24.31 24.21 24.24 24.19 24.19 24.14
9/8/2018 21:00 to 20:10 24.08 24.07 24.06 24.12 24.02 24.00
9/8/2018 20:00 to 19:10 23.99 23.95 24.02 23.92 23.95 24.06
9/8/2018 19:00 to 18:10 24.01 23.96 24.03 24.03 23.94 24.01
9/8/2018 18:00 to 17:10 23.96 24.06 24.01 24.09 24.11 23.96
9/8/2018 17:00 to 16:10 24.08 24.18 24.15 24.33 24.20 24.26
9/8/2018 16:00 to 15:10 24.24 24.10 24.39 24.38 24.28 24.01
9/8/2018 15:00 to 14:10 23.99 23.81 23.78 23.77 23.65 23.95
9/8/2018 14:00 to 13:10 23.88 23.87 23.71 23.74 23.87 23.84
9/8/2018 13:00 to 12:10 23.83 23.92 23.80 23.78 23.79 23.75
9/8/2018 12:00 to 11:10 23.74 23.68 23.68 23.61 23.73 23.76
9/8/2018 11:00 to 10:10 23.84 23.90 23.93 23.81 23.64 23.72
9/8/2018 10:00 to 9:10 23.69 23.79 23.61 23.75 23.67 23.83
9/8/2018 09:00 to 8:10 23.69 23.82 23.78 23.78 23.88 23.82
9/8/2018 08:00 to 7:10 23.79 23.82 23.92 23.83 23.86 23.90
9/8/2018 07:00 to 6:10 23.96 24.00 23.83 23.95 23.96 23.83
9/8/2018 06:00 to 5:10 23.93 23.93 24.01 23.99 24.04 23.98
9/8/2018 05:00 to 4:10 24.00 24.06 24.03 24.07 24.06 24.13
9/8/2018 04:00 to 3:10 24.22 24.22 24.20 24.26 24.21 24.27
9/8/2018 03:00 to 2:10 24.25 24.23 24.20 24.34 24.35 24.34
9/8/2018 02:00 to 1:10 24.38 24.33 24.51 24.37 24.41 24.22
9/8/2018 01:00 to 0:10 24.29 24.42 24.27 24.37 24.32 24.46
9/8/2018 00:00 to 23:10 24.41 24.38 24.41 24.33 24.40 24.19
9/7/2018 23:00 to 22:10 24.24 24.38 24.22 24.25 24.36 24.28
9/7/2018 22:00 to 21:10 24.33 24.44 24.35 24.38 24.36 24.32
9/7/2018 21:00 to 20:10 24.49 24.23 24.22 24.28 24.36 24.33
9/7/2018 20:00 to 19:10 24.24 24.41 24.20 24.44 24.50 24.35
9/7/2018 19:00 to 18:10 24.33 24.50 24.60 24.41 24.49 24.41
9/7/2018 18:00 to 17:10 24.50 24.48 24.48 24.63 24.52 24.65
9/7/2018 17:00 to 16:10 24.61 24.68 24.76 24.71 24.55 24.69
9/7/2018 16:00 to 15:10 24.76 24.54 24.37 24.73 24.63 24.44
9/7/2018 15:00 to 14:10 24.52 24.42 24.17 24.19 23.98 24.11
9/7/2018 14:00 to 13:10 24.24 24.27 24.09 24.06 24.28 24.19
9/7/2018 13:00 to 12:10 24.22 24.09 24.06 24.16 24.14 24.14
9/7/2018 12:00 to 11:10 24.20 24.05 24.14 24.09 24.19 24.19
9/7/2018 11:00 to 10:10 24.14 24.32 24.17 24.18 24.35 24.30
9/7/2018 10:00 to 9:10 24.26 24.12 24.45 24.29 24.18 24.24
9/7/2018 09:00 to 8:10 24.32 24.26 24.26 24.38 24.26 24.24
9/7/2018 08:00 to 7:10 24.35 24.39 24.34 24.19 24.20 24.35
9/7/2018 07:00 to 6:10 24.29 24.20 24.22 24.22 24.30 24.31
9/7/2018 06:00 to 5:10 24.22 24.28 24.21 24.30 24.32 24.21
9/7/2018 05:00 to 4:10 24.28 24.35 24.40 24.38 24.30 24.38
9/7/2018 04:00 to 3:10 24.38 24.40 24.37 24.37 24.45 24.53
9/7/2018 03:00 to 2:10 24.45 24.51 24.37 24.41 24.45 24.45
9/7/2018 02:00 to 1:10 24.54 24.57 24.73 24.56 24.48 24.67
9/7/2018 01:00 to 0:10 24.53 24.62 24.50 24.55 24.45 24.49